Regional Weather Roundup
Issued by NWS Kansas City/Pleasant Hill, MO

Home | Current Version | Previous Version | Graphics & Text | Print | Product List | Glossary Off
Versions: 1 2 3 4 5 6 7 8 9 10 11 12 13 14 15 16 17 18 19 20 21 22 23 24 25 26

000
ASUS43 KEAX 232210
RWREAX

WEATHER ROUNDUP FOR EASTERN KANSAS AND NORTHWEST MISSOURI
NATIONAL WEATHER SERVICE KANSAS CITY/PLEASANT HILL MO
400 PM CST FRI FEB 23 2018

KSZ040-057-103>105-MOZ028-029-037-043-232300-
...KANSAS CITY METROPOLITAN AREA...

CITY           SKY/WX    TMP DP  RH WIND       PRES   REMARKS
K.C. INTL      CLOUDY    34  29  82 NE3       30.25S
K.C. DOWNTOWN  CLOUDY    37  28  70 NE6       30.26S WCI  32
LEES SUMMIT    CLOUDY    35  31  85 NE3       30.25S
OLATHE - IXD   CLOUDY    34  31  88 N6        30.25S WCI  29
OLATHE - OJC   CLOUDY    34  30  85 N6        30.24S WCI  29
LAWRENCE       CLOUDY    35  30  82 NE3       30.27R

$$

MOZ001>008-011>017-020>025-030>033-038>040-044>046-053-054-232300-
...NORTHERN AND CENTRAL MISSOURI...

CITY           SKY/WX    TMP DP  RH WIND       PRES   REMARKS
ST. JOSEPH     CLOUDY    36  30  79 N7        30.27F WCI  30
WHITEMAN AFB   CLOUDY    37  33  87 N5        30.23R WCI  33
CLINTON        NOT AVBL
SEDALIA        CLOUDY    38  36  92 NE6       30.26F WCI  33
WARSAW         NOT AVBL
CHILLICOTHE      N/A     39  30  70 N7        30.27S WCI  34
KIRKSVILLE     CLOUDY    39  32  76 NW5       30.26S

$$

MOZ041-047>049-056>058-063>065-088>090-097-232300-
...EASTERN AND SOUTHERN MISSOURI...

CITY           SKY/WX    TMP DP  RH WIND       PRES   REMARKS
ST. LOUIS INTL CLOUDY    47  42  83 NW8       30.26R
SPIRIT OF STL  CLOUDY    48  42  80 SW3       30.26R
COLUMBIA       CLOUDY    38  35  89 N6        30.24F WCI  33
JEFFERSON CITY CLOUDY    40  36  86 N3        30.25F
ROLLA          CLOUDY    44  42  93 E3        30.23F
OSAGE BEACH    CLOUDY    42  40  92 E5        30.23F
SPRINGFIELD    LGT RAIN  46  44  93 W3        30.21S
BRANSON        LGT RAIN  45  45 100 E6        30.23F FOG
JOPLIN         LGT RAIN  42  42 100 NE8       30.20R FOG
WEST PLAINS    CLOUDY    48  46  93 NW6       30.24R

$$

IAZ060-094-KSZ022-034>040-054-083-096-NEZ052-066-093-232300-
...KANSAS...SOUTHEAST NEBRASKA AND IOWA...

CITY           SKY/WX    TMP DP  RH WIND       PRES   REMARKS
TOPEKA         CLOUDY    35  30  82 NE5       30.26S WCI  31
MANHATTAN      CLOUDY    36  28  73 E6        30.24F WCI  31
EMPORIA        CLOUDY    32  29  88 NE6       30.22F WCI  26
CHANUTE        CLOUDY    38  35  89 N9        30.19F WCI  31
WICHITA        CLOUDY    34  32  92 NE9       30.19F WCI  27
OMAHA          MOSUNNY   28  22  78 N13       30.30F WCI  17
LINCOLN        MOSUNNY   33  25  72 NE9       30.28F WCI  25
FALLS CITY     CLOUDY    37  27  67 N7        30.24F WCI  32
LAMONI         MOSUNNY   38  29  70 NW8       30.24F WCI  32
DES MOINES     CLOUDY    33  25  72 N13       30.28S WCI  24

$$





USA.gov is the U.S. government's official web portal to all federal, state and local government web resources and services.